[[{"header":{"parameterUnit":"m.s-1","parameterCategory":1,"la1":30.2991,"la2":30.254,"lo1":-89.0895,"lo2":-89.0444,"dy":0.0017,"dx":0.0017,"nx":28,"ny":28,"refTime":"2025-04-12T03:00:00:Z","depth":0,"parameterNumber":2,"parameterNumberName":"U-component_of_WINDS"},"data":[0,0,0,0,0,0,0,0,0,0,0,0,0,0,0,0,0,0,0,0,0,0,0,0,0,0,0,0,0,0,0,0,0,0,0,0,0,0,0,0,0,0,0,0,0,0,0,0,0,0,0,0,0,0,0,0,0,0,-1.6296,-1.6296,0,-1.6252,-1.6252,-1.6251,-1.6176,-1.6175,-1.6174,-1.6172,-1.6129,-1.6129,-1.6129,0,0,0,0,0,0,0,0,0,0,0,0,0,-1.6316,-1.6316,-1.6296,-1.6295,-1.6295,-1.6252,-1.6252,-1.6251,-1.6177,-1.6175,-1.6173,-1.6172,-1.6129,-1.6129,-1.6129,0,0,0,0,0,0,0,0,0,0,0,0,0,-1.6294,-1.6316,-1.6296,-1.6253,-1.6248,-1.6252,-1.6252,-1.6251,-1.6177,-1.6175,-1.6173,-1.6171,-1.6129,-1.6129,-1.6129,-1.6172,0,0,-1.613,-1.613,0,0,0,0,0,0,0,0,-1.6295,-1.6293,-1.626,-1.6256,-1.6251,-1.6218,-1.6243,-1.6225,-1.6178,-1.6204,-1.6172,-1.617,-1.616,-1.6158,-1.6154,-1.617,-1.6169,-1.613,-1.613,-1.613,-1.613,0,0,0,0,0,0,0,-1.6297,-1.6294,-1.6279,-1.6259,-1.6254,-1.6236,-1.623,-1.6239,-1.6194,-1.6202,-1.6196,-1.6192,-1.6157,-1.6154,-1.6152,-1.6168,-1.613,-1.613,-1.613,-1.613,-1.6218,-1.622,0,0,0,0,0,0,-1.6304,-1.6296,-1.628,-1.6277,-1.6268,-1.6237,-1.6231,-1.623,-1.6194,-1.6187,-1.6194,-1.6189,-1.6155,-1.6152,-1.6151,-1.6199,-1.613,-1.613,-1.613,-1.6216,-1.6218,-1.6221,0,0,0,0,0,0,-1.6305,-1.6304,-1.6282,-1.6285,-1.6281,-1.6239,-1.6239,-1.6231,-1.6227,-1.6188,-1.618,-1.6199,-1.6153,-1.615,-1.6167,-1.6197,-1.613,-1.613,-1.6213,-1.6216,-1.622,-1.6297,0,0,0,0,0,0,-1.6306,-1.6304,-1.632,-1.6286,-1.6281,-1.6299,-1.6241,-1.6231,-1.6228,-1.6221,-1.619,-1.6183,-1.6151,-1.6168,-1.6168,-1.6196,-1.6131,-1.621,-1.6215,-1.6218,-1.6291,-1.6302,-1.6312,0,0,0,0,0,-1.6307,-1.6344,-1.6321,-1.632,-1.63,-1.6301,-1.6298,-1.626,-1.623,-1.6246,-1.6221,-1.6184,-1.6193,-1.617,-1.617,-1.6198,-1.6208,-1.6213,-1.6218,-1.6287,-1.63,-1.6311,0,0,0,0,0,0,-1.6383,-1.6339,-1.6313,-1.634,-1.6325,-1.6289,-1.6307,-1.6275,-1.6269,-1.6262,-1.6215,-1.6209,-1.6232,-1.6217,-1.6192,-1.6238,-1.6195,-1.62,-1.6248,-1.626,-1.627,-1.6273,-1.6131,0,0,0,0,0,-1.6403,-1.6407,-1.6368,-1.6396,-1.6389,-1.635,-1.6349,-1.6321,-1.6303,-1.6297,-1.6273,-1.6258,-1.6257,-1.6257,-1.6255,-1.6289,-1.6281,-1.6308,-1.6318,-1.6327,-1.6332,-1.6349,-1.636,-1.6237,-1.6237,-1.6237,0,0,-1.6444,-1.642,-1.6426,-1.6411,-1.6395,-1.6401,-1.6345,-1.6354,-1.6358,-1.6298,-1.6313,-1.6295,-1.6275,-1.6301,-1.6311,-1.6288,-1.6364,-1.6333,-1.634,-1.634,-1.6355,-1.6367,-1.6377,-1.624,-1.624,-1.6239,0,0,-1.6522,-1.6504,-1.6525,-1.6511,-1.6489,-1.6462,-1.6468,-1.6436,-1.6422,-1.6436,-1.6391,-1.6395,-1.6395,-1.6383,-1.6377,-1.645,-1.6416,-1.645,-1.6503,-1.6521,-1.653,-1.6539,-1.6565,-1.6575,-1.6456,-1.6456,-1.6456,0,-1.6576,-1.6583,-1.654,-1.6552,-1.6546,-1.6492,-1.6514,-1.6502,-1.6481,-1.6478,-1.6453,-1.6452,-1.6434,-1.6457,-1.6475,-1.6471,-1.6476,-1.6454,-1.6532,-1.654,-1.6547,-1.6572,-1.6582,-1.646,-1.646,-1.6459,-1.6459,0,-1.665,-1.6656,-1.6676,-1.6656,-1.6652,-1.6669,-1.6629,-1.6631,-1.6603,-1.658,-1.6595,-1.6572,-1.6564,-1.6567,-1.654,-1.6586,-1.6573,-1.6541,-1.6496,-1.6564,-1.6587,-1.6596,-1.6466,-1.6465,-1.6463,-1.6462,0,0,-1.6775,-1.6731,-1.6739,-1.673,-1.6701,-1.6705,-1.6719,-1.671,-1.6713,-1.67,-1.6711,-1.6712,-1.6682,-1.6675,-1.6646,-1.6662,-1.6722,-1.6627,-1.6626,-1.6646,-1.6771,-1.6796,-1.6807,-1.6699,-1.6701,-1.6702,-1.6773,0,-1.6847,-1.6868,-1.6831,-1.6861,-1.6866,-1.6814,-1.6827,-1.6811,-1.6789,-1.679,-1.6766,-1.6768,-1.6728,-1.6724,-1.6736,-1.6712,-1.6746,-1.6706,-1.6709,-1.671,-1.6716,-1.6819,-1.6845,-1.6913,-1.6781,-1.6783,-1.6784,0,-1.6934,-1.6925,-1.6956,-1.6926,-1.6926,-1.6938,-1.6927,-1.6929,-1.691,-1.6893,-1.6885,-1.6851,-1.6863,-1.682,-1.6837,-1.681,-1.6809,-1.6797,-1.6799,-1.6798,-1.6751,-1.6821,-1.6934,-1.6944,-1.6797,-1.6796,-1.6795,0,-1.7023,-1.7018,-1.7036,-1.7029,-1.6994,-1.7004,-1.699,-1.6969,-1.6966,-1.6957,-1.6955,-1.6947,-1.6944,-1.6939,-1.6904,-1.6876,-1.6924,-1.6878,-1.6911,-1.6912,-1.6924,-1.6923,-1.7038,-1.6923,-1.6923,-1.6922,-1.6922,0,-1.7108,-1.7128,-1.7075,-1.7086,-1.7108,-1.7065,-1.7088,-1.7069,-1.7051,-1.7057,-1.7012,-1.702,-1.6973,-1.6975,-1.6947,-1.6965,-1.6964,-1.6951,-1.6943,-1.6955,-1.6957,-1.6954,-1.6948,-1.6925,-1.6924,-1.6924,-1.6924,0,-1.721,-1.7175,-1.7191,-1.7157,-1.7149,-1.7166,-1.7137,-1.7146,-1.7121,-1.713,-1.713,-1.7092,-1.7092,-1.7056,-1.7049,-1.7031,-1.7061,-1.7044,-1.7067,-1.7062,-1.7097,-1.7094,-1.7214,-1.7227,-1.7103,-1.7105,-1.7106,0,-1.7267,-1.7281,-1.7249,-1.725,-1.7238,-1.724,-1.7237,-1.7195,-1.7194,-1.7174,-1.7185,-1.7182,-1.7177,-1.718,-1.7152,-1.7146,-1.713,-1.7172,-1.7129,-1.714,-1.7131,-1.7131,-1.7132,-1.7182,-1.7183,-1.7184,-1.7185,0,-1.7371,-1.7353,-1.735,-1.7342,-1.7339,-1.733,-1.7319,-1.7323,-1.7277,-1.7278,-1.7277,-1.7274,-1.7267,-1.7264,-1.7253,-1.7239,-1.7205,-1.7199,-1.7206,-1.7219,-1.7231,-1.7225,-1.7092,-1.7197,-1.7196,-1.7195,-1.7194,-1.7194,-1.7452,-1.7463,-1.7442,-1.744,-1.7427,-1.7417,-1.7424,-1.74,-1.7399,-1.739,-1.7365,-1.7369,-1.735,-1.7332,-1.7321,-1.7323,-1.7302,-1.7313,-1.7316,-1.7319,-1.7326,-1.7231,-1.7321,-1.7321,-1.7321,-1.732,-1.732,0,-1.7554,-1.7538,-1.7537,-1.7522,-1.7521,-1.7488,-1.7474,-1.7476,-1.7479,-1.7464,-1.746,-1.746,-1.7458,-1.7429,-1.7423,-1.7431,-1.7415,-1.7431,-1.743,-1.7427,-1.7345,-1.7339,-1.7443,-1.7443,-1.7443,-1.7443,-1.7443,-1.7443,-1.7607,-1.7624,-1.7604,-1.7613,-1.7597,-1.76,-1.7595,-1.7586,-1.7573,-1.7575,-1.7572,-1.7554,-1.7533,-1.7525,-1.7522,-1.7513,-1.7513,-1.7535,-1.7521,-1.7445,-1.7433,-1.7422,-1.7416,-1.7535,-1.7535,-1.7603,-1.7604,-1.7604]},{"header":{"parameterUnit":"m.s-1","parameterCategory":1,"la1":30.2991,"la2":30.254,"lo1":-89.0895,"lo2":-89.0444,"dy":0.0017,"dx":0.0017,"nx":28,"ny":28,"refTime":"2025-04-12T03:00:00:Z","depth":0,"parameterNumber":3,"parameterNumberName":"V-component_of_WINDS"},"data":[0,0,0,0,0,0,0,0,0,0,0,0,0,0,0,0,0,0,0,0,0,0,0,0,0,0,0,0,0,0,0,0,0,0,0,0,0,0,0,0,0,0,0,0,0,0,0,0,0,0,0,0,0,0,0,0,0,0,-2.5242,-2.5243,0,-2.5281,-2.5282,-2.5282,-2.5261,-2.526,-2.5259,-2.5258,-2.5297,-2.5299,-2.5301,0,0,0,0,0,0,0,0,0,0,0,0,0,-2.5148,-2.515,-2.5242,-2.5243,-2.5243,-2.5281,-2.5282,-2.5282,-2.5261,-2.526,-2.5259,-2.5257,-2.5296,-2.5298,-2.5301,0,0,0,0,0,0,0,0,0,0,0,0,0,-2.5188,-2.5151,-2.5242,-2.5237,-2.5237,-2.5281,-2.5282,-2.5282,-2.5261,-2.526,-2.5258,-2.5257,-2.5295,-2.5298,-2.5301,-2.5352,0,0,-2.531,-2.5312,0,0,0,0,0,0,0,0,-2.5186,-2.5192,-2.5238,-2.5238,-2.5238,-2.5265,-2.5263,-2.5306,-2.5262,-2.5252,-2.5258,-2.5256,-2.5287,-2.5291,-2.5302,-2.5353,-2.5355,-2.5311,-2.5312,-2.5314,-2.5315,0,0,0,0,0,0,0,-2.5183,-2.519,-2.5258,-2.5238,-2.5238,-2.5233,-2.5237,-2.5271,-2.5278,-2.5253,-2.5252,-2.5256,-2.5287,-2.5299,-2.5302,-2.5356,-2.5311,-2.5313,-2.5315,-2.5316,-2.5452,-2.5453,0,0,0,0,0,0,-2.5181,-2.5188,-2.5256,-2.5259,-2.5207,-2.5236,-2.524,-2.5258,-2.5278,-2.5279,-2.5258,-2.5255,-2.5294,-2.5299,-2.5304,-2.5365,-2.5314,-2.5317,-2.5318,-2.545,-2.5452,-2.5454,0,0,0,0,0,0,-2.5179,-2.5187,-2.5255,-2.5223,-2.5231,-2.5239,-2.5259,-2.5259,-2.5271,-2.5281,-2.5282,-2.5269,-2.5293,-2.5299,-2.534,-2.5366,-2.5318,-2.5321,-2.5448,-2.5451,-2.5453,-2.5488,0,0,0,0,0,0,-2.5176,-2.5187,-2.5206,-2.5224,-2.5233,-2.5291,-2.526,-2.5261,-2.5276,-2.5274,-2.5292,-2.5293,-2.5292,-2.5336,-2.5343,-2.5369,-2.5323,-2.5446,-2.5449,-2.5452,-2.5484,-2.5491,-2.5497,0,0,0,0,0,-2.5173,-2.5214,-2.5207,-2.5216,-2.5258,-2.5293,-2.5298,-2.5297,-2.5279,-2.5298,-2.5305,-2.5293,-2.5362,-2.534,-2.5348,-2.5376,-2.5444,-2.5448,-2.5452,-2.5481,-2.549,-2.5497,0,0,0,0,0,0,-2.5199,-2.5216,-2.5209,-2.5257,-2.5274,-2.5289,-2.5314,-2.5306,-2.5327,-2.5324,-2.5321,-2.5325,-2.5368,-2.5375,-2.5351,-2.5426,-2.54,-2.5406,-2.542,-2.5428,-2.5434,-2.5432,-2.5326,0,0,0,0,0,-2.521,-2.5238,-2.5251,-2.5292,-2.5301,-2.5306,-2.5321,-2.5319,-2.5336,-2.5343,-2.5352,-2.5369,-2.5394,-2.5411,-2.5435,-2.5485,-2.5489,-2.5508,-2.5514,-2.5519,-2.5525,-2.5553,-2.5562,-2.5467,-2.5467,-2.5467,0,0,-2.5234,-2.5247,-2.5264,-2.5298,-2.531,-2.5339,-2.5312,-2.5343,-2.5364,-2.5347,-2.5387,-2.5394,-2.5413,-2.5458,-2.5479,-2.5466,-2.5552,-2.5525,-2.5529,-2.5531,-2.5558,-2.5567,-2.5575,-2.547,-2.5469,-2.5469,0,0,-2.5292,-2.5304,-2.534,-2.5354,-2.5373,-2.5376,-2.5385,-2.5402,-2.5407,-2.5446,-2.5434,-2.5459,-2.5503,-2.5517,-2.5529,-2.5593,-2.5583,-2.56,-2.5635,-2.5662,-2.5669,-2.5676,-2.5699,-2.5708,-2.5605,-2.5606,-2.5606,0,-2.5319,-2.5362,-2.5359,-2.5392,-2.5407,-2.5393,-2.543,-2.5442,-2.5469,-2.548,-2.5465,-2.552,-2.5531,-2.5581,-2.5596,-2.5606,-2.5617,-2.5599,-2.5668,-2.5675,-2.5681,-2.5704,-2.5712,-2.5608,-2.5607,-2.5607,-2.5607,0,-2.5394,-2.5424,-2.5451,-2.5478,-2.5496,-2.553,-2.5532,-2.5551,-2.5546,-2.5551,-2.5592,-2.5605,-2.5632,-2.5643,-2.5639,-2.5692,-2.5683,-2.5668,-2.5643,-2.5692,-2.5713,-2.5722,-2.5611,-2.561,-2.5609,-2.5609,0,0,-2.5471,-2.5496,-2.5506,-2.5518,-2.5539,-2.5562,-2.5595,-2.5622,-2.5638,-2.5656,-2.5685,-2.5722,-2.5709,-2.5723,-2.572,-2.5744,-2.5795,-2.5726,-2.5727,-2.574,-2.5855,-2.5867,-2.5877,-2.5787,-2.5789,-2.579,-2.5854,0,-2.5531,-2.5591,-2.5589,-2.5644,-2.5672,-2.5659,-2.5689,-2.5704,-2.571,-2.5734,-2.5739,-2.5766,-2.5746,-2.5754,-2.5777,-2.5784,-2.5818,-2.5779,-2.5814,-2.5816,-2.5812,-2.5888,-2.5901,-2.5961,-2.5862,-2.5864,-2.5865,0,-2.561,-2.5632,-2.569,-2.5707,-2.5719,-2.5745,-2.577,-2.5793,-2.5811,-2.5813,-2.5829,-2.5823,-2.5856,-2.5829,-2.5875,-2.5849,-2.5863,-2.5868,-2.5871,-2.5875,-2.5844,-2.5896,-2.598,-2.5989,-2.5877,-2.5876,-2.5875,0,-2.5661,-2.5705,-2.5746,-2.5757,-2.5777,-2.5796,-2.5806,-2.5822,-2.5838,-2.5859,-2.587,-2.5895,-2.5908,-2.5927,-2.5928,-2.5907,-2.5975,-2.5947,-2.5979,-2.5979,-2.5995,-2.5994,-2.6083,-2.6002,-2.6001,-2.6001,-2.6001,0,-2.5729,-2.5766,-2.5769,-2.5795,-2.5835,-2.5833,-2.5873,-2.588,-2.5895,-2.5921,-2.591,-2.5935,-2.5934,-2.5959,-2.5959,-2.5998,-2.6004,-2.6007,-2.6007,-2.6009,-2.6009,-2.6019,-2.6015,-2.6004,-2.6003,-2.6003,-2.6002,0,-2.5794,-2.5798,-2.5842,-2.5858,-2.5863,-2.5892,-2.5906,-2.593,-2.5934,-2.5967,-2.5975,-2.5981,-2.601,-2.6012,-2.6045,-2.6046,-2.6094,-2.6088,-2.6088,-2.6088,-2.612,-2.6117,-2.622,-2.6233,-2.6142,-2.6142,-2.6143,0,-2.5838,-2.5866,-2.5886,-2.5903,-2.5914,-2.5942,-2.5959,-2.5957,-2.5975,-2.5997,-2.6019,-2.6047,-2.6069,-2.6116,-2.6124,-2.6149,-2.6145,-2.6179,-2.6149,-2.615,-2.6147,-2.6146,-2.6149,-2.6185,-2.6186,-2.6187,-2.6188,0,-2.5917,-2.5917,-2.5942,-2.5968,-2.5989,-2.6009,-2.6028,-2.6042,-2.6043,-2.6064,-2.6094,-2.6111,-2.6146,-2.6174,-2.6199,-2.6208,-2.6199,-2.6197,-2.6206,-2.6209,-2.6209,-2.6211,-2.6106,-2.6195,-2.6195,-2.6194,-2.6194,-2.6193,-2.5973,-2.5998,-2.6016,-2.6044,-2.6058,-2.6076,-2.61,-2.6107,-2.6132,-2.6161,-2.6158,-2.6191,-2.6208,-2.6241,-2.6252,-2.6278,-2.6266,-2.6279,-2.6282,-2.6286,-2.629,-2.6203,-2.6282,-2.6282,-2.6282,-2.6282,-2.6282,0,-2.6052,-2.6063,-2.6089,-2.6117,-2.6139,-2.6128,-2.6148,-2.6168,-2.6197,-2.6214,-2.6237,-2.6271,-2.6299,-2.6308,-2.6335,-2.6354,-2.635,-2.6361,-2.636,-2.6363,-2.6298,-2.6288,-2.6364,-2.6364,-2.6364,-2.6364,-2.6364,-2.6364,-2.6096,-2.6138,-2.614,-2.6189,-2.6199,-2.6232,-2.6245,-2.6261,-2.6275,-2.6314,-2.6337,-2.6343,-2.6357,-2.6385,-2.641,-2.6412,-2.6422,-2.6435,-2.6436,-2.6375,-2.6367,-2.6359,-2.635,-2.6437,-2.6438,-2.6499,-2.6499,-2.65]}]]